TimeEST,TemperatureF,Dew PointF,Humidity,Sea Level PressureIn,VisibilityMPH,Wind Direction,Wind SpeedMPH,Gust SpeedMPH,PrecipitationIn,Events,Conditions,WindDirDegrees,DateUTC
12:53 AM,39.0,27.0,62,30.44,10.0,East,4.6,-,N/A,,Clear,100,2012-11-19 05:53:00
1:53 AM,37.9,26.1,62,30.43,10.0,Calm,Calm,-,N/A,,Clear,0,2012-11-19 06:53:00
2:53 AM,37.0,27.0,67,30.44,10.0,ENE,3.5,-,N/A,,Clear,60,2012-11-19 07:53:00
3:53 AM,36.0,27.0,70,30.42,10.0,East,4.6,-,N/A,,Clear,80,2012-11-19 08:53:00
4:53 AM,35.1,27.0,72,30.42,10.0,ENE,3.5,-,N/A,,Clear,70,2012-11-19 09:53:00
5:53 AM,35.1,28.0,76,30.43,9.0,ENE,3.5,-,N/A,,Clear,60,2012-11-19 10:53:00
6:53 AM,34.0,28.9,82,30.43,5.0,NE,4.6,-,N/A,,Haze,50,2012-11-19 11:53:00
7:53 AM,34.0,28.9,82,30.43,3.0,NE,3.5,-,N/A,,Haze,50,2012-11-19 12:53:00
8:53 AM,39.9,32.0,73,30.42,6.0,ESE,3.5,-,N/A,,Haze,110,2012-11-19 13:53:00
9:53 AM,43.0,33.1,68,30.42,10.0,SSE,4.6,-,N/A,,Clear,150,2012-11-19 14:53:00
10:53 AM,46.9,32.0,56,30.40,10.0,SSE,3.5,-,N/A,,Clear,160,2012-11-19 15:53:00
11:53 AM,48.9,33.1,54,30.37,10.0,Variable,3.5,-,N/A,,Clear,0,2012-11-19 16:53:00
12:53 PM,50.0,33.1,52,30.34,10.0,Calm,Calm,-,N/A,,Clear,0,2012-11-19 17:53:00
1:53 PM,52.0,30.9,45,30.32,10.0,Calm,Calm,-,N/A,,Clear,0,2012-11-19 18:53:00
2:53 PM,51.1,32.0,48,30.31,10.0,East,3.5,-,N/A,,Clear,100,2012-11-19 19:53:00
3:53 PM,51.1,32.0,48,30.30,10.0,Calm,Calm,-,N/A,,Clear,0,2012-11-19 20:53:00
4:53 PM,50.0,30.9,48,30.30,10.0,Calm,Calm,-,N/A,,Clear,0,2012-11-19 21:53:00
5:53 PM,48.9,30.9,50,30.29,10.0,Calm,Calm,-,N/A,,Clear,0,2012-11-19 22:53:00
6:53 PM,48.0,30.9,52,30.28,10.0,NNE,3.5,-,N/A,,Clear,20,2012-11-19 23:53:00
7:53 PM,46.9,30.9,54,30.28,10.0,Calm,Calm,-,N/A,,Clear,0,2012-11-20 00:53:00
8:53 PM,46.0,32.0,58,30.27,10.0,Calm,Calm,-,N/A,,Clear,0,2012-11-20 01:53:00
9:53 PM,46.0,32.0,58,30.25,10.0,Calm,Calm,-,N/A,,Clear,0,2012-11-20 02:53:00
10:53 PM,43.0,32.0,65,30.23,10.0,Calm,Calm,-,N/A,,Clear,0,2012-11-20 03:53:00
11:53 PM,43.0,32.0,65,30.22,10.0,Calm,Calm,-,N/A,,Clear,0,2012-11-20 04:53:00